This demonstration page uses our WeatherBlox Daily Observations layout. Learn more.

Left ArrowRight Arrow

Hourly Observations for June 16, 2019

Temp ( °F °C ) Dew Point ( °F °C ) Humidity (%) Winds ( mph kmh ) Pressure ( in mb ) Visibility ( mi km ) Precip ( " mm )
12:56 am 00:56 Clear 65 18.3 58 14.4 78 78 NNW 5 7 29.86 1011 10 16 0.00 0.00
1:56 am 01:56 Clear 64 17.8 56 13.3 75 75 NNW 6 9 29.86 1011 10 16 0.00 0.00
2:56 am 02:56 Mostly Cloudy 63 17.2 55 12.8 76 76 NNW 7 11 29.87 1011 10 16 0.00 0.00
3:56 am 03:56 Clear 62 16.7 55 12.8 78 78 Calm 29.88 1012 10 16 0.00 0.00
4:56 am 04:56 Clear 61 16.1 54 12.2 78 78 NW 7 11 29.87 1011 10 16 0.00 0.00
5:56 am 05:56 Clear 59 15 54 12.2 83 83 NW 8 13 29.88 1012 10 16 0.00 0.00
6:56 am 06:56 Sunny 59 15 53 11.7 81 81 NNW 7 11 29.90 1013 10 16 0.00 0.00
7:56 am 07:56 Sunny 62 16.7 56 13.3 80 80 WNW 3 6 29.91 1013 10 16 0.00 0.00
8:56 am 08:56 Sunny 68 20 58 14.4 70 70 NW 7 11 29.92 1013 10 16 0.00 0.00
9:56 am 09:56 Sunny 73 22.8 58 14.4 59 59 N 6 9 29.92 1013 10 16 0.00 0.00
10:56 am 10:56 Sunny 77 25 54 12.2 45 45 NNE 7 11 29.93 1014 10 16 0.00 0.00
11:56 am 11:56 Sunny 78 25.6 50 10 37 37 VRB 5 7 29.92 1013 10 16 0.00 0.00
12:56 pm 12:56 Sunny 79 26.1 49 9.4 35 35 Calm 29.92 1013 10 16 0.00 0.00
1:56 pm 13:56 Sunny 81 27.2 52 11.1 37 37 VRB 6 9 29.91 1013 10 16 0.00 0.00
2:56 pm 14:56 Sunny 81 27.2 51 10.6 35 35 NE 6 9 29.89 1012 10 16 0.00 0.00
3:56 pm 15:56 Sunny 83 28.3 51 10.6 33 33 N 8 13 29.87 1012 10 16 0.00 0.00
4:56 pm 16:56 Sunny 80 26.7 53 11.7 39 39 NNE 5 7 29.86 1011 10 16 0.00 0.00
5:56 pm 17:56 Sunny 81 27.2 53 11.7 38 38 NE 8 13 29.85 1011 10 16 0.00 0.00
6:56 pm 18:56 Mostly Sunny 79 26.1 55 12.8 44 44 NNE 9 15 29.88 1012 10 16 0.00 0.00
7:56 pm 19:56 Cloudy 77 25 56 13.3 48 48 NE 8 13 29.88 1012 10 16 0.00 0.00
8:56 pm 20:56 Mostly Cloudy 74 23.3 59 15 60 60 ENE 5 7 29.88 1012 10 16 0.00 0.00
9:56 pm 21:56 Partly Cloudy 71 21.7 60 15.6 68 68 NE 6 9 29.89 1012 10 16 0.00 0.00
10:56 pm 22:56 Cloudy 72 22.2 59 15 64 64 N 12 19 29.91 1013 10 16 0.00 0.00
11:56 pm 23:56 Cloudy 70 21.1 59 15 68 68 NNE 13 20 29.92 1013 10 16 0.00 0.00

Powered by AerisWeather